TimeCDT,TemperatureF,Dew PointF,Humidity,Sea Level PressureIn,VisibilityMPH,Wind Direction,Wind SpeedMPH,Gust SpeedMPH,PrecipitationIn,Events,Conditions,WindDirDegrees,DateUTC
12:53 AM,69.1,63.0,81,30.06,10.0,Calm,Calm,-,N/A,,Clear,0,2013-07-04 05:53:00
1:53 AM,69.1,64.0,84,30.05,10.0,Calm,Calm,-,N/A,,Clear,0,2013-07-04 06:53:00
2:53 AM,68.0,63.0,84,30.03,10.0,Calm,Calm,-,N/A,,Clear,0,2013-07-04 07:53:00
3:53 AM,66.9,63.0,87,30.03,10.0,Calm,Calm,-,N/A,,Clear,0,2013-07-04 08:53:00
4:53 AM,64.9,63.0,93,30.03,8.0,NNE,4.6,-,N/A,,Clear,20,2013-07-04 09:53:00
5:53 AM,66.0,62.1,87,30.04,10.0,NNE,3.5,-,N/A,,Clear,20,2013-07-04 10:53:00
6:53 AM,66.9,64.0,90,30.05,9.0,Calm,Calm,-,N/A,,Clear,0,2013-07-04 11:53:00
7:53 AM,72.0,66.0,81,30.06,10.0,ENE,4.6,-,N/A,,Clear,60,2013-07-04 12:53:00
8:53 AM,73.9,66.0,76,30.06,10.0,ENE,4.6,-,N/A,,Clear,70,2013-07-04 13:53:00
9:53 AM,78.1,68.0,71,30.05,10.0,East,4.6,-,N/A,,Clear,80,2013-07-04 14:53:00
10:53 AM,81.0,68.0,65,30.05,10.0,East,3.5,-,N/A,,Clear,90,2013-07-04 15:53:00
11:53 AM,84.9,68.0,57,30.05,10.0,Variable,5.8,-,N/A,,Clear,0,2013-07-04 16:53:00
12:53 PM,84.9,64.0,49,30.04,10.0,East,6.9,-,N/A,,Clear,90,2013-07-04 17:53:00
1:53 PM,87.1,63.0,44,30.01,10.0,East,9.2,-,N/A,,Clear,80,2013-07-04 18:53:00
2:53 PM,87.1,59.0,39,29.99,10.0,ESE,9.2,-,N/A,,Clear,110,2013-07-04 19:53:00
3:53 PM,88.0,61.0,40,29.98,10.0,Variable,4.6,-,N/A,,Partly Cloudy,0,2013-07-04 20:53:00
4:53 PM,88.0,60.1,39,29.96,10.0,ENE,5.8,-,N/A,,Partly Cloudy,70,2013-07-04 21:53:00
5:53 PM,84.0,64.9,53,29.96,10.0,East,11.5,-,N/A,,Partly Cloudy,80,2013-07-04 22:53:00
6:53 PM,82.9,66.0,56,29.97,10.0,ESE,12.7,-,N/A,,Clear,110,2013-07-04 23:53:00
7:53 PM,80.1,66.0,62,29.97,10.0,ESE,9.2,-,N/A,,Clear,120,2013-07-05 00:53:00
8:53 PM,77.0,66.9,71,29.99,10.0,East,5.8,-,N/A,,Clear,90,2013-07-05 01:53:00
9:53 PM,75.0,66.9,76,30.00,10.0,NE,4.6,-,N/A,,Clear,50,2013-07-05 02:53:00
10:38 PM,75.2,68.0,78,30.02,10.0,East,4.6,-,N/A,,Mostly Cloudy,80,2013-07-05 03:38:00
10:49 PM,75.2,68.0,78,30.02,10.0,East,6.9,-,N/A,,Scattered Clouds,90,2013-07-05 03:49:00
10:53 PM,75.0,68.0,79,30.01,10.0,East,8.1,-,N/A,,Scattered Clouds,90,2013-07-05 03:53:00
11:53 PM,73.9,68.0,82,30.01,10.0,ESE,5.8,-,N/A,,Clear,110,2013-07-05 04:53:00